Time,TemperatureF,DewpointF,PressureIn,WindDirection,WindDirectionDegrees,WindSpeedMPH,WindSpeedGustMPH,Humidity,HourlyPrecipIn,Conditions,Clouds,dailyrainin,SoftwareType,DateUTC
2013-07-15 00:00:00,74.2,72.7,30.06,SE,130,0.0,2.0,95,0.00,,,0.00,WeatherTracker,2013-07-15 05:00:00,
2013-07-15 00:10:00,74.0,72.5,30.06,ESE,104,2.0,4.0,95,0.00,,,0.00,WeatherTracker,2013-07-15 05:10:00,
2013-07-15 00:15:00,74.0,72.5,30.06,ESE,104,1.0,5.0,95,0.00,,,0.00,WeatherTracker,2013-07-15 05:15:00,
2013-07-15 00:25:00,74.0,72.5,30.06,SE,133,2.0,5.0,95,0.00,,,0.00,WeatherTracker,2013-07-15 05:25:00,
2013-07-15 00:30:00,74.0,72.5,30.06,ESE,108,0.0,4.0,95,0.00,,,0.00,WeatherTracker,2013-07-15 05:30:00,
2013-07-15 00:35:00,74.0,72.5,30.06,ESE,110,0.0,4.0,95,0.00,,,0.00,WeatherTracker,2013-07-15 05:35:00,
2013-07-15 00:40:00,73.9,72.4,30.06,ESE,110,2.0,4.0,95,0.00,,,0.00,WeatherTracker,2013-07-15 05:40:00,
2013-07-15 00:45:00,73.9,72.4,30.06,ESE,110,0.0,4.0,95,0.00,,,0.00,WeatherTracker,2013-07-15 05:45:00,
2013-07-15 00:55:00,73.9,72.4,30.06,East,86,0.0,5.0,95,0.00,,,0.00,WeatherTracker,2013-07-15 05:55:00,
2013-07-15 01:05:00,73.9,72.4,30.06,East,87,3.0,3.0,95,0.00,,,0.00,WeatherTracker,2013-07-15 06:05:00,
2013-07-15 01:10:00,73.9,72.7,30.06,SE,139,0.0,7.0,96,0.00,,,0.00,WeatherTracker,2013-07-15 06:10:00,
2013-07-15 01:20:00,73.9,72.7,30.06,ESE,109,4.0,5.0,96,0.00,,,0.00,WeatherTracker,2013-07-15 06:20:00,
2013-07-15 01:30:00,73.8,72.6,30.06,SSE,149,0.0,5.0,96,0.00,,,0.00,WeatherTracker,2013-07-15 06:30:00,
2013-07-15 01:35:00,73.8,72.6,30.06,ESE,123,0.0,4.0,96,0.00,,,0.00,WeatherTracker,2013-07-15 06:35:00,
2013-07-15 01:40:00,73.8,72.6,30.06,ESE,123,0.0,2.0,96,0.00,,,0.00,WeatherTracker,2013-07-15 06:40:00,
2013-07-15 01:45:00,73.7,72.5,30.07,ESE,123,2.0,0.0,96,0.00,,,0.00,WeatherTracker,2013-07-15 06:45:00,
2013-07-15 01:55:00,73.8,72.6,30.07,ESE,123,0.0,4.0,96,0.00,,,0.00,WeatherTracker,2013-07-15 06:55:00,
2013-07-15 02:00:00,73.7,72.5,30.07,ESE,123,0.0,2.0,96,0.00,,,0.00,WeatherTracker,2013-07-15 07:00:00,
2013-07-15 02:10:00,73.7,72.5,30.07,East,98,0.0,6.0,96,0.00,,,0.00,WeatherTracker,2013-07-15 07:10:00,
2013-07-15 02:15:00,73.8,72.6,30.07,East,96,2.0,6.0,96,0.00,,,0.00,WeatherTracker,2013-07-15 07:15:00,
2013-07-15 02:20:00,73.8,72.6,30.07,ESE,108,1.0,6.0,96,0.00,,,0.00,WeatherTracker,2013-07-15 07:20:00,
2013-07-15 02:30:00,73.8,72.6,30.07,East,82,0.0,5.0,96,0.00,,,0.00,WeatherTracker,2013-07-15 07:30:00,
2013-07-15 02:35:00,73.9,72.7,30.07,East,100,5.0,6.0,96,0.00,,,0.00,WeatherTracker,2013-07-15 07:35:00,
2013-07-15 02:40:00,73.9,72.7,30.07,ESE,109,1.0,6.0,96,0.00,,,0.00,WeatherTracker,2013-07-15 07:40:00,
2013-07-15 02:50:00,73.8,72.6,30.07,ESE,107,4.0,6.0,96,0.00,,,0.00,WeatherTracker,2013-07-15 07:50:00,
2013-07-15 02:55:00,73.8,72.6,30.07,ESE,105,4.0,6.0,96,0.00,,,0.00,WeatherTracker,2013-07-15 07:55:00,
2013-07-15 03:05:00,73.7,72.5,30.07,SE,126,0.0,6.0,96,0.00,,,0.00,WeatherTracker,2013-07-15 08:05:00,
2013-07-15 03:15:00,73.6,72.4,30.07,ESE,121,0.0,4.0,96,0.00,,,0.00,WeatherTracker,2013-07-15 08:15:00,
2013-07-15 03:25:00,73.5,72.3,30.07,ESE,108,0.0,5.0,96,0.00,,,0.00,WeatherTracker,2013-07-15 08:25:00,
2013-07-15 03:35:00,73.4,72.2,30.08,East,90,2.0,5.0,96,0.00,,,0.00,WeatherTracker,2013-07-15 08:35:00,
2013-07-15 03:40:00,73.4,72.2,30.07,ENE,73,2.0,5.0,96,0.00,,,0.00,WeatherTracker,2013-07-15 08:40:00,
2013-07-15 03:50:00,73.3,72.1,30.08,ESE,106,1.0,6.0,96,0.00,,,0.00,WeatherTracker,2013-07-15 08:50:00,
2013-07-15 03:55:00,73.2,72.0,30.08,ESE,114,0.0,6.0,96,0.00,,,0.00,WeatherTracker,2013-07-15 08:55:00,
2013-07-15 04:05:00,73.1,71.9,30.09,East,82,3.0,4.0,96,0.00,,,0.00,WeatherTracker,2013-07-15 09:05:00,
2013-07-15 04:15:00,73.0,71.8,30.09,East,86,0.0,3.0,96,0.00,,,0.00,WeatherTracker,2013-07-15 09:15:00,
2013-07-15 04:25:00,72.9,71.7,30.09,East,86,1.0,3.0,96,0.00,,,0.00,WeatherTracker,2013-07-15 09:25:00,
2013-07-15 04:30:00,72.9,71.7,30.09,East,92,1.0,6.0,96,0.00,,,0.00,WeatherTracker,2013-07-15 09:30:00,
2013-07-15 04:40:00,72.8,71.6,30.09,ESE,114,0.0,6.0,96,0.00,,,0.00,WeatherTracker,2013-07-15 09:40:00,
2013-07-15 04:45:00,72.8,71.6,30.09,ESE,114,0.0,6.0,96,0.00,,,0.00,WeatherTracker,2013-07-15 09:45:00,
2013-07-15 04:50:00,72.7,71.5,30.09,ESE,114,0.0,4.0,96,0.00,,,0.00,WeatherTracker,2013-07-15 09:50:00,
2013-07-15 04:55:00,72.6,71.4,30.09,ESE,114,1.0,2.0,96,0.00,,,0.00,WeatherTracker,2013-07-15 09:55:00,
2013-07-15 05:05:00,72.5,71.3,30.10,ENE,78,2.0,5.0,96,0.00,,,0.00,WeatherTracker,2013-07-15 10:05:00,
2013-07-15 05:10:00,72.4,71.2,30.10,ENE,78,3.0,5.0,96,0.00,,,0.00,WeatherTracker,2013-07-15 10:10:00,
2013-07-15 05:20:00,72.4,71.2,30.10,ESE,104,5.0,6.0,96,0.00,,,0.00,WeatherTracker,2013-07-15 10:20:00,
2013-07-15 05:25:00,72.4,71.2,30.10,ESE,107,0.0,7.0,96,0.00,,,0.00,WeatherTracker,2013-07-15 10:25:00,
2013-07-15 05:30:00,72.3,71.1,30.10,East,92,1.0,7.0,96,0.00,,,0.00,WeatherTracker,2013-07-15 10:30:00,
2013-07-15 05:40:00,72.3,71.1,30.11,East,100,4.0,6.0,96,0.00,,,0.00,WeatherTracker,2013-07-15 10:40:00,
2013-07-15 05:45:00,72.3,71.4,30.11,East,96,4.0,6.0,97,0.00,,,0.00,WeatherTracker,2013-07-15 10:45:00,
2013-07-15 05:55:00,72.3,71.4,30.12,ESE,110,0.0,5.0,97,0.00,,,0.00,WeatherTracker,2013-07-15 10:55:00,
2013-07-15 06:05:00,72.4,71.5,30.12,East,85,4.0,7.0,97,0.00,,,0.00,WeatherTracker,2013-07-15 11:05:00,
2013-07-15 06:15:00,72.6,71.7,30.12,East,82,4.0,7.0,97,0.00,,,0.00,WeatherTracker,2013-07-15 11:15:00,
2013-07-15 06:20:00,72.7,71.8,30.12,East,100,6.0,10.0,97,0.00,,,0.00,WeatherTracker,2013-07-15 11:20:00,
2013-07-15 06:25:00,72.8,71.9,30.12,ESE,111,4.0,10.0,97,0.00,,,0.00,WeatherTracker,2013-07-15 11:25:00,
2013-07-15 06:30:00,72.9,72.0,30.12,East,92,0.0,7.0,97,0.00,,,0.00,WeatherTracker,2013-07-15 11:30:00,
2013-07-15 06:35:00,73.0,72.1,30.12,SE,124,4.0,7.0,97,0.00,,,0.00,WeatherTracker,2013-07-15 11:35:00,
2013-07-15 06:45:00,73.1,72.2,30.13,East,96,2.0,11.0,97,0.00,,,0.00,WeatherTracker,2013-07-15 11:45:00,
2013-07-15 06:55:00,73.3,72.1,30.13,SSE,147,1.0,11.0,96,0.00,,,0.00,WeatherTracker,2013-07-15 11:55:00,
2013-07-15 07:00:00,73.4,72.2,30.14,ESE,115,2.0,7.0,96,0.00,,,0.00,WeatherTracker,2013-07-15 12:00:00,
2013-07-15 07:05:00,73.5,72.3,30.14,East,98,0.0,8.0,96,0.00,,,0.00,WeatherTracker,2013-07-15 12:05:00,
2013-07-15 07:15:00,73.8,72.6,30.14,East,98,4.0,7.0,96,0.00,,,0.00,WeatherTracker,2013-07-15 12:15:00,
2013-07-15 07:20:00,73.9,72.7,30.14,ENE,78,0.0,7.0,96,0.00,,,0.00,WeatherTracker,2013-07-15 12:20:00,
2013-07-15 07:30:00,74.0,72.5,30.14,East,100,4.0,8.0,95,0.00,,,0.00,WeatherTracker,2013-07-15 12:30:00,
2013-07-15 07:35:00,74.1,72.6,30.14,East,99,1.0,8.0,95,0.00,,,0.00,WeatherTracker,2013-07-15 12:35:00,
2013-07-15 07:40:00,74.1,72.6,30.14,ESE,102,6.0,11.0,95,0.00,,,0.00,WeatherTracker,2013-07-15 12:40:00,
2013-07-15 07:45:00,74.2,72.7,30.14,East,81,2.0,11.0,95,0.00,,,0.00,WeatherTracker,2013-07-15 12:45:00,
2013-07-15 07:55:00,74.4,72.6,30.15,SSE,164,2.0,8.0,94,0.00,,,0.00,WeatherTracker,2013-07-15 12:55:00,
2013-07-15 08:05:00,75.3,73.1,30.15,SE,134,4.0,10.0,93,0.00,,,0.00,WeatherTracker,2013-07-15 13:05:00,
2013-07-15 08:10:00,75.5,73.0,30.15,ENE,63,0.0,10.0,92,0.00,,,0.00,WeatherTracker,2013-07-15 13:10:00,
2013-07-15 08:20:00,76.0,73.2,30.15,South,175,4.0,8.0,91,0.00,,,0.00,WeatherTracker,2013-07-15 13:20:00,
2013-07-15 08:25:00,76.3,72.8,30.15,East,101,12.0,12.0,89,0.00,,,0.00,WeatherTracker,2013-07-15 13:25:00,
2013-07-15 08:30:00,76.4,72.6,30.15,ESE,102,5.0,13.0,88,0.00,,,0.00,WeatherTracker,2013-07-15 13:30:00,
2013-07-15 08:35:00,76.6,72.8,30.15,East,101,4.0,13.0,88,0.00,,,0.00,WeatherTracker,2013-07-15 13:35:00,
2013-07-15 08:45:00,76.8,72.3,30.15,East,90,4.0,11.0,86,0.00,,,0.00,WeatherTracker,2013-07-15 13:45:00,
2013-07-15 08:50:00,76.7,72.2,30.15,ENE,77,3.0,12.0,86,0.00,,,0.00,WeatherTracker,2013-07-15 13:50:00,
2013-07-15 08:55:00,76.7,72.5,30.16,ESE,107,1.0,12.0,87,0.00,,,0.00,WeatherTracker,2013-07-15 13:55:00,
2013-07-15 09:00:00,76.7,72.9,30.16,SE,144,5.0,11.0,88,0.00,,,0.00,WeatherTracker,2013-07-15 14:00:00,
2013-07-15 09:05:00,77.0,72.8,30.16,ESE,111,5.0,11.0,87,0.00,,,0.00,WeatherTracker,2013-07-15 14:05:00,
2013-07-15 09:15:00,77.2,72.7,30.16,East,97,6.0,13.0,86,0.00,,,0.00,WeatherTracker,2013-07-15 14:15:00,
2013-07-15 09:25:00,77.2,72.7,30.16,SE,133,4.0,12.0,86,0.00,,,0.00,WeatherTracker,2013-07-15 14:25:00,
2013-07-15 09:35:00,77.4,72.9,30.16,ENE,75,0.0,10.0,86,0.00,,,0.00,WeatherTracker,2013-07-15 14:35:00,
2013-07-15 09:40:00,78.3,74.8,30.16,East,96,4.0,10.0,89,0.00,,,0.00,WeatherTracker,2013-07-15 14:40:00,
2013-07-15 09:50:00,78.8,72.8,30.17,East,82,3.0,11.0,82,0.00,,,0.00,WeatherTracker,2013-07-15 14:50:00,
2013-07-15 10:00:00,79.0,73.4,30.17,SSE,161,5.0,12.0,83,0.00,,,0.00,WeatherTracker,2013-07-15 15:00:00,
2013-07-15 10:05:00,79.0,72.7,30.17,East,94,7.0,13.0,81,0.00,,,0.00,WeatherTracker,2013-07-15 15:05:00,
2013-07-15 10:10:00,79.2,73.9,30.17,SSE,159,7.0,13.0,84,0.00,,,0.00,WeatherTracker,2013-07-15 15:10:00,
2013-07-15 10:15:00,79.3,73.3,30.17,ENE,62,2.0,9.0,82,0.00,,,0.00,WeatherTracker,2013-07-15 15:15:00,
2013-07-15 10:25:00,78.7,72.7,30.17,ENE,76,3.0,11.0,82,0.00,,,0.00,WeatherTracker,2013-07-15 15:25:00,
2013-07-15 10:30:00,78.3,72.3,30.17,East,96,1.0,11.0,82,0.00,,,0.00,WeatherTracker,2013-07-15 15:30:00,
2013-07-15 10:35:00,78.2,72.6,30.17,East,87,1.0,11.0,83,0.00,,,0.00,WeatherTracker,2013-07-15 15:35:00,
2013-07-15 10:45:00,78.5,73.6,30.17,SSE,151,5.0,10.0,85,0.00,,,0.00,WeatherTracker,2013-07-15 15:45:00,
2013-07-15 10:55:00,79.6,74.0,30.17,ESE,116,7.0,7.0,83,0.00,,,0.00,WeatherTracker,2013-07-15 15:55:00,
2013-07-15 11:05:00,80.0,73.6,30.17,ESE,115,6.0,8.0,81,0.00,,,0.00,WeatherTracker,2013-07-15 16:05:00,
2013-07-15 11:15:00,80.5,73.4,30.17,ESE,112,4.0,11.0,79,0.00,,,0.00,WeatherTracker,2013-07-15 16:15:00,
2013-07-15 11:20:00,81.3,74.1,30.16,East,90,4.0,10.0,79,0.00,,,0.00,WeatherTracker,2013-07-15 16:20:00,
2013-07-15 11:25:00,81.6,73.7,30.17,SE,125,2.0,8.0,77,0.00,,,0.00,WeatherTracker,2013-07-15 16:25:00,
2013-07-15 11:35:00,81.5,74.3,30.16,ENE,77,4.0,9.0,79,0.00,,,0.00,WeatherTracker,2013-07-15 16:35:00,
2013-07-15 11:45:00,81.3,73.0,30.16,ESE,113,0.0,9.0,76,0.00,,,0.00,WeatherTracker,2013-07-15 16:45:00,
2013-07-15 12:00:00,82.6,74.6,30.16,East,98,6.0,11.0,77,0.00,,,0.00,WeatherTracker,2013-07-15 17:00:00,
2013-07-15 12:05:00,82.6,73.4,30.16,ENE,77,4.0,11.0,74,0.00,,,0.00,WeatherTracker,2013-07-15 17:05:00,
2013-07-15 12:10:00,82.2,73.5,30.15,ENE,66,6.0,11.0,75,0.00,,,0.00,WeatherTracker,2013-07-15 17:10:00,
2013-07-15 12:15:00,82.8,74.0,30.15,SE,134,4.0,11.0,75,0.00,,,0.00,WeatherTracker,2013-07-15 17:15:00,
2013-07-15 12:20:00,83.1,73.9,30.15,ENE,67,6.0,8.0,74,0.00,,,0.00,WeatherTracker,2013-07-15 17:20:00,
2013-07-15 12:25:00,84.1,74.5,30.15,ESE,105,4.0,9.0,73,0.00,,,0.00,WeatherTracker,2013-07-15 17:25:00,
2013-07-15 12:30:00,84.3,75.1,30.15,East,90,5.0,12.0,74,0.00,,,0.00,WeatherTracker,2013-07-15 17:30:00,
2013-07-15 12:40:00,83.7,74.9,30.15,ESE,102,4.0,8.0,75,0.00,,,0.00,WeatherTracker,2013-07-15 17:40:00,
2013-07-15 12:45:00,83.2,74.8,30.15,East,86,4.0,9.0,76,0.00,,,0.00,WeatherTracker,2013-07-15 17:45:00,
2013-07-15 12:50:00,83.3,74.9,30.14,SSW,207,0.0,11.0,76,0.00,,,0.00,WeatherTracker,2013-07-15 17:50:00,
2013-07-15 13:00:00,83.0,74.6,30.14,ESE,109,4.0,9.0,76,0.00,,,0.00,WeatherTracker,2013-07-15 18:00:00,
2013-07-15 13:05:00,83.8,74.2,30.14,SE,129,7.0,12.0,73,0.00,,,0.00,WeatherTracker,2013-07-15 18:05:00,
2013-07-15 13:10:00,84.8,76.0,30.14,East,93,2.0,12.0,75,0.00,,,0.00,WeatherTracker,2013-07-15 18:10:00,
2013-07-15 13:20:00,85.6,75.1,30.13,East,88,2.0,11.0,71,0.00,,,0.00,WeatherTracker,2013-07-15 18:20:00,
2013-07-15 13:35:00,85.6,74.7,30.12,ESE,117,6.0,14.0,70,0.00,,,0.00,WeatherTracker,2013-07-15 18:35:00,
2013-07-15 13:40:00,85.0,73.7,30.12,NE,53,8.0,14.0,69,0.00,,,0.00,WeatherTracker,2013-07-15 18:40:00,
2013-07-15 13:45:00,84.7,74.2,30.12,ENE,63,3.0,12.0,71,0.00,,,0.00,WeatherTracker,2013-07-15 18:45:00,
2013-07-15 13:50:00,84.6,74.1,30.12,ESE,109,5.0,10.0,71,0.00,,,0.00,WeatherTracker,2013-07-15 18:50:00,
2013-07-15 14:00:00,85.7,74.3,30.11,East,79,3.0,12.0,69,0.00,,,0.00,WeatherTracker,2013-07-15 19:00:00,
2013-07-15 14:05:00,85.9,73.6,30.11,SE,146,4.0,9.0,67,0.00,,,0.00,WeatherTracker,2013-07-15 19:05:00,
2013-07-15 14:10:00,85.4,74.0,30.11,ESE,117,6.0,9.0,69,0.00,,,0.00,WeatherTracker,2013-07-15 19:10:00,
2013-07-15 14:15:00,85.8,74.0,30.11,NE,49,8.0,9.0,68,0.00,,,0.00,WeatherTracker,2013-07-15 19:15:00,
2013-07-15 14:25:00,86.8,74.0,30.11,SE,138,5.0,10.0,66,0.00,,,0.00,WeatherTracker,2013-07-15 19:25:00,
2013-07-15 14:30:00,86.6,73.4,30.11,East,100,6.0,10.0,65,0.00,,,0.00,WeatherTracker,2013-07-15 19:30:00,
2013-07-15 14:35:00,86.3,74.0,30.11,ENE,77,4.0,11.0,67,0.00,,,0.00,WeatherTracker,2013-07-15 19:35:00,
2013-07-15 14:40:00,86.4,75.4,30.10,SSE,147,6.0,11.0,70,0.00,,,0.00,WeatherTracker,2013-07-15 19:40:00,
2013-07-15 14:50:00,86.3,74.5,30.10,SE,133,2.0,12.0,68,0.00,,,0.00,WeatherTracker,2013-07-15 19:50:00,
2013-07-15 15:00:00,87.1,73.9,30.09,SSE,148,2.0,11.0,65,0.00,,,0.00,WeatherTracker,2013-07-15 20:00:00,
2013-07-15 15:05:00,87.2,74.9,30.09,SE,144,6.0,8.0,67,0.00,,,0.00,WeatherTracker,2013-07-15 20:05:00,
2013-07-15 15:15:00,87.9,75.5,30.09,East,92,6.0,8.0,67,0.00,,,0.00,WeatherTracker,2013-07-15 20:15:00,
2013-07-15 15:25:00,88.1,73.9,30.09,East,82,6.0,11.0,63,0.00,,,0.00,WeatherTracker,2013-07-15 20:25:00,
2013-07-15 15:30:00,87.2,72.6,30.09,ESE,118,6.0,13.0,62,0.00,,,0.00,WeatherTracker,2013-07-15 20:30:00,
2013-07-15 15:35:00,87.3,74.1,30.09,SE,124,1.0,13.0,65,0.00,,,0.00,WeatherTracker,2013-07-15 20:35:00,
2013-07-15 15:40:00,87.7,74.4,30.09,East,83,4.0,8.0,65,0.00,,,0.00,WeatherTracker,2013-07-15 20:40:00,
2013-07-15 15:55:00,88.0,74.3,30.08,SSW,192,1.0,8.0,64,0.00,,,0.00,WeatherTracker,2013-07-15 20:55:00,
2013-07-15 16:05:00,87.9,73.2,30.07,SE,130,7.0,8.0,62,0.00,,,0.00,WeatherTracker,2013-07-15 21:05:00,
2013-07-15 16:15:00,88.1,73.9,30.07,South,178,4.0,11.0,63,0.00,,,0.00,WeatherTracker,2013-07-15 21:15:00,
2013-07-15 16:25:00,88.1,72.9,30.08,ENE,76,3.0,10.0,61,0.00,,,0.00,WeatherTracker,2013-07-15 21:25:00,
2013-07-15 16:40:00,88.1,73.9,30.07,NNE,25,2.0,6.0,63,0.00,,,0.00,WeatherTracker,2013-07-15 21:40:00,
2013-07-15 16:50:00,88.4,74.6,30.07,ENE,78,3.0,7.0,64,0.00,,,0.00,WeatherTracker,2013-07-15 21:50:00,
2013-07-15 17:00:00,88.2,74.0,30.07,ESE,119,5.0,6.0,63,0.00,,,0.00,WeatherTracker,2013-07-15 22:00:00,
2013-07-15 17:05:00,88.0,73.8,30.07,ESE,115,1.0,7.0,63,0.00,,,0.00,WeatherTracker,2013-07-15 22:05:00,
2013-07-15 17:15:00,87.7,74.4,30.08,ESE,108,1.0,6.0,65,0.00,,,0.00,WeatherTracker,2013-07-15 22:15:00,
2013-07-15 17:21:00,87.9,74.6,30.07,NE,46,2.0,6.0,65,0.00,,,0.00,WeatherTracker,2013-07-15 22:21:00,
2013-07-15 17:30:00,87.9,73.7,30.07,East,82,2.0,6.0,63,0.00,,,0.00,WeatherTracker,2013-07-15 22:30:00,
2013-07-15 17:35:00,88.0,74.7,30.08,East,82,1.0,5.0,65,0.00,,,0.00,WeatherTracker,2013-07-15 22:35:00,
2013-07-15 17:40:00,88.0,74.7,30.08,East,86,2.0,6.0,65,0.00,,,0.00,WeatherTracker,2013-07-15 22:40:00,
2013-07-15 17:50:00,88.3,75.9,30.08,ENE,66,3.0,6.0,67,0.00,,,0.00,WeatherTracker,2013-07-15 22:50:00,
2013-07-15 17:55:00,88.4,75.1,30.08,East,93,4.0,6.0,65,0.00,,,0.00,WeatherTracker,2013-07-15 22:55:00,
2013-07-15 18:00:00,87.8,73.1,30.10,ENE,67,7.0,30.0,62,0.00,,,0.00,WeatherTracker,2013-07-15 23:00:00,
2013-07-15 18:05:00,83.9,70.4,30.11,ENE,63,11.0,30.0,64,0.00,,,0.00,WeatherTracker,2013-07-15 23:05:00,
2013-07-15 18:15:00,76.3,70.0,30.12,ENE,64,6.0,23.0,81,0.07,,,0.07,WeatherTracker,2013-07-15 23:15:00,
2013-07-15 18:20:00,74.3,69.8,30.12,NNE,28,6.0,21.0,86,0.08,,,0.08,WeatherTracker,2013-07-15 23:20:00,
2013-07-15 18:30:00,72.9,69.8,30.11,ENE,57,2.0,13.0,90,0.10,,,0.10,WeatherTracker,2013-07-15 23:30:00,
2013-07-15 18:35:00,72.8,70.0,30.12,South,180,2.0,8.0,91,0.10,,,0.10,WeatherTracker,2013-07-15 23:35:00,
2013-07-15 18:45:00,72.7,70.2,30.13,South,180,0.0,8.0,92,0.10,,,0.10,WeatherTracker,2013-07-15 23:45:00,
2013-07-15 18:55:00,72.8,70.7,30.13,SW,236,4.0,4.0,93,0.10,,,0.10,WeatherTracker,2013-07-15 23:55:00,
2013-07-15 19:00:00,72.7,70.6,30.13,SW,236,2.0,4.0,93,0.10,,,0.10,WeatherTracker,2013-07-16 00:00:00,
2013-07-15 19:10:00,72.7,70.6,30.12,SW,236,0.0,3.0,93,0.10,,,0.10,WeatherTracker,2013-07-16 00:10:00,
2013-07-15 19:20:00,72.7,70.6,30.12,SW,236,0.0,0.0,93,0.02,,,0.10,WeatherTracker,2013-07-16 00:20:00,
2013-07-15 19:25:00,72.7,70.9,30.12,SW,236,0.0,0.0,94,0.00,,,0.10,WeatherTracker,2013-07-16 00:25:00,
2013-07-15 19:35:00,72.9,71.4,30.12,North,355,3.0,5.0,95,0.00,,,0.10,WeatherTracker,2013-07-16 00:35:00,
2013-07-15 19:40:00,72.9,71.4,30.12,North,355,2.0,5.0,95,0.00,,,0.10,WeatherTracker,2013-07-16 00:40:00,
2013-07-15 19:50:00,72.6,71.1,30.12,North,9,1.0,5.0,95,0.00,,,0.10,WeatherTracker,2013-07-16 00:50:00,
2013-07-15 19:55:00,72.5,71.0,30.13,North,9,2.0,5.0,95,0.00,,,0.10,WeatherTracker,2013-07-16 00:55:00,
2013-07-15 20:00:00,72.3,70.8,30.13,North,9,0.0,3.0,95,0.00,,,0.10,WeatherTracker,2013-07-16 01:00:00,
2013-07-15 20:15:00,72.2,70.7,30.13,North,9,2.0,2.0,95,0.00,,,0.10,WeatherTracker,2013-07-16 01:15:00,
2013-07-15 20:20:00,72.1,70.6,30.13,North,355,0.0,4.0,95,0.00,,,0.10,WeatherTracker,2013-07-16 01:20:00,
2013-07-15 20:25:00,72.1,70.6,30.13,North,355,3.0,4.0,95,0.00,,,0.10,WeatherTracker,2013-07-16 01:25:00,
2013-07-15 20:35:00,71.9,70.4,30.13,North,360,3.0,5.0,95,0.00,,,0.10,WeatherTracker,2013-07-16 01:35:00,
2013-07-15 20:45:00,71.7,70.5,30.13,NNE,27,0.0,5.0,96,0.00,,,0.10,WeatherTracker,2013-07-16 01:45:00,
2013-07-15 20:50:00,71.6,70.4,30.13,NNE,27,2.0,4.0,96,0.00,,,0.10,WeatherTracker,2013-07-16 01:50:00,
2013-07-15 20:55:00,71.5,70.3,30.13,NNE,27,0.0,4.0,96,0.00,,,0.10,WeatherTracker,2013-07-16 01:55:00,
2013-07-15 21:05:00,71.4,70.2,30.13,NNE,27,2.0,4.0,96,0.00,,,0.10,WeatherTracker,2013-07-16 02:05:00,
2013-07-15 21:11:00,71.4,70.2,30.13,NNE,27,1.0,4.0,96,0.00,,,0.10,WeatherTracker,2013-07-16 02:11:00,
2013-07-15 21:20:00,71.5,70.3,30.13,NE,34,4.0,4.0,96,0.00,,,0.10,WeatherTracker,2013-07-16 02:20:00,
2013-07-15 21:30:00,71.6,70.4,30.13,NE,34,0.0,4.0,96,0.00,,,0.10,WeatherTracker,2013-07-16 02:30:00,
2013-07-15 21:35:00,71.6,70.4,30.14,NE,36,0.0,4.0,96,0.00,,,0.10,WeatherTracker,2013-07-16 02:35:00,
2013-07-15 21:45:00,71.7,70.5,30.14,ENE,67,4.0,5.0,96,0.00,,,0.10,WeatherTracker,2013-07-16 02:45:00,
2013-07-15 21:50:00,71.7,70.8,30.14,ENE,61,3.0,5.0,97,0.00,,,0.10,WeatherTracker,2013-07-16 02:50:00,
2013-07-15 21:55:00,71.7,70.8,30.14,ENE,69,3.0,4.0,97,0.00,,,0.10,WeatherTracker,2013-07-16 02:55:00,
2013-07-15 22:05:00,71.9,71.0,30.14,ENE,60,3.0,6.0,97,0.00,,,0.10,WeatherTracker,2013-07-16 03:05:00,
2013-07-15 22:15:00,72.0,71.1,30.15,ENE,60,1.0,5.0,97,0.00,,,0.10,WeatherTracker,2013-07-16 03:15:00,
2013-07-15 22:25:00,72.1,71.2,30.16,ENE,60,2.0,4.0,97,0.00,,,0.10,WeatherTracker,2013-07-16 03:25:00,
2013-07-15 22:30:00,72.1,71.2,30.16,ENE,60,2.0,4.0,97,0.00,,,0.10,WeatherTracker,2013-07-16 03:30:00,
2013-07-15 22:40:00,72.2,71.3,30.16,ENE,60,0.0,4.0,97,0.00,,,0.10,WeatherTracker,2013-07-16 03:40:00,
2013-07-15 22:45:00,72.3,71.4,30.16,ENE,60,2.0,4.0,97,0.00,,,0.10,WeatherTracker,2013-07-16 03:45:00,
2013-07-15 22:50:00,72.4,71.5,30.16,NE,51,2.0,5.0,97,0.00,,,0.10,WeatherTracker,2013-07-16 03:50:00,
2013-07-15 22:55:00,72.5,71.6,30.16,ENE,70,3.0,5.0,97,0.00,,,0.10,WeatherTracker,2013-07-16 03:55:00,
2013-07-15 23:00:00,72.5,71.6,30.16,ENE,70,3.0,5.0,97,0.00,,,0.10,WeatherTracker,2013-07-16 04:00:00,
2013-07-15 23:05:00,72.5,71.6,30.16,ENE,70,4.0,5.0,97,0.00,,,0.10,WeatherTracker,2013-07-16 04:05:00,
2013-07-15 23:10:00,72.5,71.6,30.16,ENE,70,2.0,4.0,97,0.00,,,0.10,WeatherTracker,2013-07-16 04:10:00,
2013-07-15 23:15:00,72.6,71.7,30.16,ENE,70,1.0,5.0,97,0.00,,,0.10,WeatherTracker,2013-07-16 04:15:00,
2013-07-15 23:20:00,72.6,71.7,30.16,NE,49,2.0,5.0,97,0.00,,,0.10,WeatherTracker,2013-07-16 04:20:00,
2013-07-15 23:25:00,72.7,71.8,30.16,ENE,74,0.0,6.0,97,0.00,,,0.10,WeatherTracker,2013-07-16 04:25:00,
2013-07-15 23:30:00,72.7,71.8,30.16,ENE,74,3.0,6.0,97,0.00,,,0.10,WeatherTracker,2013-07-16 04:30:00,
2013-07-15 23:40:00,72.7,71.8,30.16,East,82,3.0,7.0,97,0.00,,,0.10,WeatherTracker,2013-07-16 04:40:00,
2013-07-15 23:45:00,72.7,71.8,30.16,East,92,1.0,7.0,97,0.00,,,0.10,WeatherTracker,2013-07-16 04:45:00,
2013-07-15 23:55:00,72.9,72.0,30.16,ENE,75,4.0,5.0,97,0.00,,,0.10,WeatherTracker,2013-07-16 04:55:00,